DECAYED

STARLINK-1228, 45188 (Decayed)

Orbit data source: Space-Track

STARLINK-1228, 45188 was a payload satellite owned by SpaceX/Seattle (US) in LEO that was launched on Mon, 17 Feb 2020 UTC via an FALCON 9 launch vehicle from the Air Force Eastern Test Range (AFETR). Payload-class satellites include a variety of spacecraft equipped with specific instruments for various scientific and technological missions. These include communications satellites like Starlink; space stations such as the ISS; scientific satellites like the Hubble; Earth observation satellites from companies like Planet Labs, Umbra, and HawkEye 360; GPS; miniature CubeSats for education and research; and military/defense satellites.

Not visible in the next 10 days
Identifier
45188, 2020-012L
Orbit
Decayed
Country
Flag of USUS
Related business
Manufacturer
SpaceX/Seattle
Mission
Decayed Commercial Communications
Bus & Motor
STARLINK, Unknown motor
Mass
260 kg wet, ~248 kg dry
Launch date (UTC)
2020-02-17 (7 years ago)
Launch vehicle
FALCON 9
Launch site
Air Force Eastern Test Range (AFETR)
Object type
Payload
Rocket body
Debris
Shape & HBR
Box + 1 Pan, 10.1 m
Radar Cross Section
13.562 m², Large (>1 m²)

Expand to show TLE details & history
Last TLE update: 1 year ago

TLE from 1 year ago
0 STARLINK-1228
1 45188U 20012L   25257.74500021  .05684543  12255-4  78651-3 0  9995
2 45188  53.0239 359.8770 0004384 333.7401  26.3420 16.34337011309894
Epoch: 2025-09-14T17:52Z
TLE epoch observation values (Epoch: 2025-09-14T17:52:48.018Z)
Latitude
Longitude
97.71732°
Altitude
179.258 km
Speed
7.802 km/s
True Right ascension
23h 59m 30s
True Declination
0° 00' 00"
Sunlit
Object was in full shadow at epoch
Visualization orbit readout
Latitude
Unknown
Longitude
Unknown
Altitude
Unknown
Speed
Unknown
Apparent Right ascension
Unknown
Apparent Declination
Unknown
Sunlit
N/A
Visualization observer readout
Local Sidereal Time
00:54:36
Azimuth
Unknown
Elevation
Unknown
Doppler factor
Unknown
Orbital elements
Apogee altitude
184.076 km
Perigee altitude
178.325 km
Semi-major axis
6,559.338 km
Eccentricity
0.00044
Inclination
53.0239°
RAAN
359.877°
Arg. of periapsis
333.7401°
True anomaly
26.3643°
Mean anomaly
26.342°
Eccentric anomaly
26.35315°
Mean motion
4.08557 °/min
Orbital period
88.11 mins
BSTAR
0.00078651
Loading maneuver chart data...
Computing Atmospheric mass density...

Documentation

Showing up to 5 results
|